Time,TemperatureF,DewpointF,PressureIn,WindDirection,WindDirectionDegrees,WindSpeedMPH,WindSpeedGustMPH,Humidity,HourlyPrecipIn,Conditions,Clouds,dailyrainin,SoftwareType,DateUTC
2013-07-30 00:03:00,56.2,51.7,30.13,WSW,256,0.0,0.0,85,0.00,BKN,BKN,0.00,WeatherDisplay:10.37,2013-07-30 07:03:00,
2013-07-30 00:09:00,56.0,51.5,30.13,WSW,256,0.0,0.0,85,0.00,BKN,BKN,0.00,WeatherDisplay:10.37,2013-07-30 07:09:00,
2013-07-30 00:18:00,55.7,51.6,30.13,WSW,256,0.0,0.0,86,0.00,BKN,BKN,0.00,WeatherDisplay:10.37,2013-07-30 07:18:00,
2013-07-30 00:23:00,55.5,51.4,30.13,WSW,256,0.0,0.0,86,0.00,BKN,BKN,0.00,WeatherDisplay:10.37,2013-07-30 07:23:00,
2013-07-30 00:28:00,55.3,51.2,30.14,WSW,256,0.0,0.0,86,0.00,BKN,BKN,0.00,WeatherDisplay:10.37,2013-07-30 07:28:00,
2013-07-30 00:33:00,55.1,51.3,30.14,WSW,256,0.0,0.0,87,0.00,BKN,BKN,0.00,WeatherDisplay:10.37,2013-07-30 07:33:00,
2013-07-30 00:38:00,55.0,51.2,30.14,WSW,256,0.0,0.0,87,0.00,BKN,BKN,0.00,WeatherDisplay:10.37,2013-07-30 07:38:00,
2013-07-30 00:43:00,54.9,51.1,30.14,WSW,256,0.0,0.0,87,0.00,BKN,BKN,0.00,WeatherDisplay:10.37,2013-07-30 07:43:00,
2013-07-30 00:48:00,54.8,51.0,30.14,WSW,256,0.0,0.0,87,0.00,BKN,BKN,0.00,WeatherDisplay:10.37,2013-07-30 07:48:00,
2013-07-30 00:53:00,54.7,51.2,30.14,WSW,256,0.0,0.0,88,0.00,BKN,BKN,0.00,WeatherDisplay:10.37,2013-07-30 07:53:00,
2013-07-30 00:58:00,54.6,51.1,30.14,WSW,256,0.0,0.0,88,0.00,BKN,BKN,0.00,WeatherDisplay:10.37,2013-07-30 07:58:00,
2013-07-30 01:03:00,54.4,51.0,30.15,WSW,256,0.0,0.0,88,0.00,BKN,BKN,0.00,WeatherDisplay:10.37,2013-07-30 08:03:00,
2013-07-30 01:08:00,54.3,50.8,30.15,WSW,256,0.0,0.0,88,0.00,BKN,BKN,0.00,WeatherDisplay:10.37,2013-07-30 08:08:00,
2013-07-30 01:13:00,54.2,50.7,30.15,WSW,256,0.0,0.0,88,0.00,BKN,BKN,0.00,WeatherDisplay:10.37,2013-07-30 08:13:00,
2013-07-30 01:18:00,54.1,50.6,30.15,WSW,256,0.0,0.0,88,0.00,BKN,BKN,0.00,WeatherDisplay:10.37,2013-07-30 08:18:00,
2013-07-30 01:23:00,54.0,50.5,30.15,WSW,256,0.0,0.0,88,0.00,BKN,BKN,0.00,WeatherDisplay:10.37,2013-07-30 08:23:00,
2013-07-30 01:28:00,53.9,50.4,30.15,WSW,256,0.0,0.0,88,0.00,BKN,BKN,0.00,WeatherDisplay:10.37,2013-07-30 08:28:00,
2013-07-30 01:33:00,53.8,50.7,30.15,WSW,256,0.0,0.0,89,0.00,BKN,BKN,0.00,WeatherDisplay:10.37,2013-07-30 08:33:00,
2013-07-30 01:38:00,53.8,50.3,30.15,WSW,256,0.0,0.0,88,0.00,BKN,BKN,0.00,WeatherDisplay:10.37,2013-07-30 08:38:00,
2013-07-30 01:43:00,53.6,50.2,30.15,WSW,256,0.0,0.0,88,0.00,BKN,BKN,0.00,WeatherDisplay:10.37,2013-07-30 08:43:00,
2013-07-30 01:48:00,53.5,50.0,30.15,WSW,256,0.0,0.0,88,0.00,BKN,BKN,0.00,WeatherDisplay:10.37,2013-07-30 08:48:00,
2013-07-30 01:53:00,53.5,50.3,30.15,WSW,256,0.0,0.0,89,0.00,BKN,BKN,0.00,WeatherDisplay:10.37,2013-07-30 08:53:00,
2013-07-30 01:58:00,53.4,50.2,30.15,WSW,256,0.0,0.0,89,0.00,BKN,BKN,0.00,WeatherDisplay:10.37,2013-07-30 08:58:00,
2013-07-30 02:03:00,53.3,50.1,30.15,WSW,256,0.0,0.0,89,0.00,BKN,BKN,0.00,WeatherDisplay:10.37,2013-07-30 09:03:00,
2013-07-30 02:08:00,53.2,50.0,30.16,WSW,256,0.0,0.0,89,0.00,BKN,BKN,0.00,WeatherDisplay:10.37,2013-07-30 09:08:00,
2013-07-30 02:13:00,53.1,49.9,30.16,WSW,256,0.0,0.0,89,0.00,BKN,BKN,0.00,WeatherDisplay:10.37,2013-07-30 09:13:00,
2013-07-30 02:18:00,53.1,49.9,30.16,WSW,256,0.0,0.0,89,0.00,BKN,BKN,0.00,WeatherDisplay:10.37,2013-07-30 09:18:00,
2013-07-30 02:23:00,53.0,49.8,30.16,WSW,256,0.0,0.0,89,0.00,BKN,BKN,0.00,WeatherDisplay:10.37,2013-07-30 09:23:00,
2013-07-30 02:28:00,52.9,49.7,30.16,WSW,256,0.0,0.0,89,0.00,BKN,BKN,0.00,WeatherDisplay:10.37,2013-07-30 09:28:00,
2013-07-30 02:33:00,52.9,50.0,30.16,WSW,256,0.0,0.0,90,0.00,BKN,BKN,0.00,WeatherDisplay:10.37,2013-07-30 09:33:00,
2013-07-30 02:38:00,52.9,50.0,30.16,WSW,256,0.0,0.0,90,0.00,BKN,BKN,0.00,WeatherDisplay:10.37,2013-07-30 09:38:00,
2013-07-30 02:43:00,52.8,49.9,30.17,WSW,256,0.0,0.0,90,0.00,BKN,BKN,0.00,WeatherDisplay:10.37,2013-07-30 09:43:00,
2013-07-30 02:48:00,52.7,49.9,30.17,WSW,256,0.0,0.0,90,0.00,BKN,BKN,0.00,WeatherDisplay:10.37,2013-07-30 09:48:00,
2013-07-30 02:53:00,52.7,49.8,30.17,WSW,256,0.0,0.0,90,0.00,BKN,BKN,0.00,WeatherDisplay:10.37,2013-07-30 09:53:00,
2013-07-30 02:58:00,52.6,49.8,30.17,WSW,256,0.0,0.0,90,0.00,BKN,BKN,0.00,WeatherDisplay:10.37,2013-07-30 09:58:00,
2013-07-30 03:03:00,52.6,49.8,30.17,WSW,256,0.0,0.0,90,0.00,BKN,BKN,0.00,WeatherDisplay:10.37,2013-07-30 10:03:00,
2013-07-30 03:08:00,52.6,49.8,30.17,WSW,256,0.0,0.0,90,0.00,BKN,BKN,0.00,WeatherDisplay:10.37,2013-07-30 10:08:00,
2013-07-30 03:13:00,52.6,49.8,30.17,WSW,256,0.0,0.0,90,0.00,BKN,BKN,0.00,WeatherDisplay:10.37,2013-07-30 10:13:00,
2013-07-30 03:18:00,52.6,49.7,30.17,WSW,256,0.0,0.0,90,0.00,BKN,BKN,0.00,WeatherDisplay:10.37,2013-07-30 10:18:00,
2013-07-30 03:23:00,52.5,49.7,30.18,WSW,256,0.0,0.0,90,0.00,BKN,BKN,0.00,WeatherDisplay:10.37,2013-07-30 10:23:00,
2013-07-30 03:28:00,52.5,49.7,30.18,WSW,256,0.0,0.0,90,0.00,BKN,BKN,0.00,WeatherDisplay:10.37,2013-07-30 10:28:00,
2013-07-30 03:33:00,52.4,49.6,30.18,WSW,256,0.0,0.0,90,0.00,BKN,BKN,0.00,WeatherDisplay:10.37,2013-07-30 10:33:00,
2013-07-30 03:38:00,52.4,49.6,30.18,WSW,256,0.0,0.0,90,0.00,BKN,BKN,0.00,WeatherDisplay:10.37,2013-07-30 10:38:00,
2013-07-30 03:43:00,52.3,49.5,30.18,WSW,256,0.0,0.0,90,0.00,BKN,BKN,0.00,WeatherDisplay:10.37,2013-07-30 10:43:00,
2013-07-30 03:48:00,52.3,49.5,30.18,WSW,256,0.0,0.0,90,0.00,BKN,BKN,0.00,WeatherDisplay:10.37,2013-07-30 10:48:00,
2013-07-30 03:53:00,52.3,49.4,30.18,WSW,256,0.0,0.0,90,0.00,BKN,BKN,0.00,WeatherDisplay:10.37,2013-07-30 10:53:00,
2013-07-30 03:58:00,52.2,49.4,30.18,WSW,256,0.0,0.0,90,0.00,BKN,BKN,0.00,WeatherDisplay:10.37,2013-07-30 10:58:00,
2013-07-30 04:03:00,52.2,49.4,30.18,WSW,256,0.0,0.0,90,0.00,BKN,BKN,0.00,WeatherDisplay:10.37,2013-07-30 11:03:00,
2013-07-30 04:08:00,52.2,49.4,30.18,WSW,256,0.0,0.0,90,0.00,BKN,BKN,0.00,WeatherDisplay:10.37,2013-07-30 11:08:00,
2013-07-30 04:13:00,52.2,49.3,30.18,WSW,256,0.0,0.0,90,0.00,BKN,BKN,0.00,WeatherDisplay:10.37,2013-07-30 11:13:00,
2013-07-30 04:18:00,52.1,49.6,30.19,WSW,256,0.0,0.0,91,0.00,BKN,BKN,0.00,WeatherDisplay:10.37,2013-07-30 11:18:00,
2013-07-30 04:23:00,52.0,49.5,30.19,WSW,256,0.0,0.0,91,0.00,BKN,BKN,0.00,WeatherDisplay:10.37,2013-07-30 11:23:00,
2013-07-30 04:28:00,51.9,49.4,30.19,WSW,256,0.0,0.0,91,0.00,BKN,BKN,0.00,WeatherDisplay:10.37,2013-07-30 11:28:00,
2013-07-30 04:33:00,51.9,49.4,30.19,WSW,256,0.0,0.0,91,0.00,BKN,BKN,0.00,WeatherDisplay:10.37,2013-07-30 11:33:00,
2013-07-30 04:38:00,51.8,49.3,30.19,WSW,256,0.0,0.0,91,0.00,BKN,BKN,0.00,WeatherDisplay:10.37,2013-07-30 11:38:00,
2013-07-30 04:43:00,51.7,48.9,30.20,WSW,256,0.0,0.0,90,0.00,BKN,BKN,0.00,WeatherDisplay:10.37,2013-07-30 11:43:00,
2013-07-30 04:48:00,51.6,49.1,30.20,WSW,256,0.0,0.0,91,0.00,BKN,BKN,0.00,WeatherDisplay:10.37,2013-07-30 11:48:00,
2013-07-30 04:53:00,51.5,49.0,30.20,WSW,256,0.0,0.0,91,0.00,BKN,BKN,0.00,WeatherDisplay:10.37,2013-07-30 11:53:00,
2013-07-30 04:58:00,51.4,48.9,30.20,WSW,256,0.0,0.0,91,0.00,BKN,BKN,0.00,WeatherDisplay:10.37,2013-07-30 11:58:00,
2013-07-30 05:03:00,51.4,48.8,30.20,WSW,256,0.0,0.0,91,0.00,BKN,BKN,0.00,WeatherDisplay:10.37,2013-07-30 12:03:00,
2013-07-30 05:08:00,51.3,48.8,30.20,WSW,256,0.0,0.0,91,0.00,BKN,BKN,0.00,WeatherDisplay:10.37,2013-07-30 12:08:00,
2013-07-30 05:13:00,51.2,48.7,30.20,WSW,256,0.0,0.0,91,0.00,BKN,BKN,0.00,WeatherDisplay:10.37,2013-07-30 12:13:00,
2013-07-30 05:18:00,51.2,48.6,30.20,WSW,256,0.0,0.0,91,0.00,BKN,BKN,0.00,WeatherDisplay:10.37,2013-07-30 12:18:00,
2013-07-30 05:23:00,51.1,48.6,30.20,WSW,256,0.0,0.0,91,0.00,BKN,BKN,0.00,WeatherDisplay:10.37,2013-07-30 12:23:00,
2013-07-30 05:28:00,51.0,48.5,30.20,WSW,256,0.0,0.0,91,0.00,BKN,BKN,0.00,WeatherDisplay:10.37,2013-07-30 12:28:00,
2013-07-30 05:33:00,50.9,48.4,30.20,WSW,256,0.0,0.0,91,0.00,BKN,BKN,0.00,WeatherDisplay:10.37,2013-07-30 12:33:00,
2013-07-30 05:38:00,50.8,48.3,30.20,WSW,256,0.0,0.0,91,0.00,BKN,BKN,0.00,WeatherDisplay:10.37,2013-07-30 12:38:00,
2013-07-30 05:43:00,50.8,48.3,30.21,WSW,256,0.0,0.0,91,0.00,BKN,BKN,0.00,WeatherDisplay:10.37,2013-07-30 12:43:00,
2013-07-30 05:48:00,50.7,48.2,30.21,WSW,256,0.0,0.0,91,0.00,BKN,BKN,0.00,WeatherDisplay:10.37,2013-07-30 12:48:00,
2013-07-30 05:53:00,50.6,48.1,30.21,WSW,256,0.0,0.0,91,0.00,BKN,BKN,0.00,WeatherDisplay:10.37,2013-07-30 12:53:00,
2013-07-30 05:58:00,50.6,48.1,30.21,WSW,256,0.0,0.0,91,0.00,BKN,BKN,0.00,WeatherDisplay:10.37,2013-07-30 12:58:00,
2013-07-30 06:03:00,50.5,48.0,30.22,WSW,256,0.0,0.0,91,0.00,BKN,BKN,0.00,WeatherDisplay:10.37,2013-07-30 13:03:00,
2013-07-30 06:08:00,50.5,48.0,30.22,WSW,256,0.0,0.0,91,0.00,BKN,BKN,0.00,WeatherDisplay:10.37,2013-07-30 13:08:00,
2013-07-30 06:13:00,50.4,47.9,30.22,WSW,256,0.0,0.0,91,0.00,BKN,BKN,0.00,WeatherDisplay:10.37,2013-07-30 13:13:00,
2013-07-30 06:18:00,50.4,47.9,30.22,WSW,256,0.0,0.0,91,0.00,BKN,BKN,0.00,WeatherDisplay:10.37,2013-07-30 13:18:00,
2013-07-30 06:23:00,50.4,47.9,30.22,WSW,256,0.0,0.0,91,0.00,BKN,BKN,0.00,WeatherDisplay:10.37,2013-07-30 13:23:00,
2013-07-30 06:28:00,50.4,47.9,30.23,WSW,256,0.0,0.0,91,0.00,BKN,BKN,0.00,WeatherDisplay:10.37,2013-07-30 13:28:00,
2013-07-30 06:33:00,50.4,47.9,30.23,WSW,256,0.0,0.0,91,0.00,BKN,BKN,0.00,WeatherDisplay:10.37,2013-07-30 13:33:00,
2013-07-30 06:38:00,50.4,48.2,30.23,WSW,256,0.0,0.0,92,0.00,BKN,BKN,0.00,WeatherDisplay:10.37,2013-07-30 13:38:00,
2013-07-30 06:43:00,50.5,48.3,30.23,WSW,256,0.0,0.0,92,0.00,BKN,BKN,0.00,WeatherDisplay:10.37,2013-07-30 13:43:00,
2013-07-30 06:48:00,50.6,48.4,30.23,WSW,256,0.0,0.0,92,0.00,BKN,BKN,0.00,WeatherDisplay:10.37,2013-07-30 13:48:00,
2013-07-30 06:53:00,50.6,48.4,30.23,WSW,256,0.0,0.0,92,0.00,BKN,BKN,0.00,WeatherDisplay:10.37,2013-07-30 13:53:00,
2013-07-30 06:58:00,50.7,48.5,30.23,WSW,256,0.0,0.0,92,0.00,BKN,BKN,0.00,WeatherDisplay:10.37,2013-07-30 13:58:00,
2013-07-30 07:03:00,50.8,48.6,30.24,WSW,256,0.0,0.0,92,0.00,BKN,BKN,0.00,WeatherDisplay:10.37,2013-07-30 14:03:00,
2013-07-30 07:08:00,50.8,48.6,30.24,WSW,256,0.0,0.0,92,0.00,BKN,BKN,0.00,WeatherDisplay:10.37,2013-07-30 14:08:00,
2013-07-30 07:13:00,50.9,48.7,30.24,WSW,256,0.0,0.0,92,0.00,BKN,BKN,0.00,WeatherDisplay:10.37,2013-07-30 14:13:00,
2013-07-30 07:18:00,51.0,48.8,30.24,WSW,256,0.0,0.0,92,0.00,BKN,BKN,0.00,WeatherDisplay:10.37,2013-07-30 14:18:00,
2013-07-30 07:23:00,51.2,49.0,30.24,WSW,256,0.0,0.0,92,0.00,BKN,BKN,0.00,WeatherDisplay:10.37,2013-07-30 14:23:00,
2013-07-30 07:28:00,51.5,49.3,30.24,WSW,256,0.0,0.0,92,0.00,BKN,BKN,0.00,WeatherDisplay:10.37,2013-07-30 14:28:00,
2013-07-30 07:33:00,52.1,50.1,30.25,WSW,256,0.0,0.0,93,0.00,BKN,BKN,0.00,WeatherDisplay:10.37,2013-07-30 14:33:00,
2013-07-30 07:38:00,52.5,50.6,30.25,WSW,256,0.0,0.0,93,0.00,BKN,BKN,0.00,WeatherDisplay:10.37,2013-07-30 14:38:00,
2013-07-30 07:43:00,52.9,51.0,30.25,WSW,256,0.0,0.0,93,0.00,BKN,BKN,0.00,WeatherDisplay:10.37,2013-07-30 14:43:00,
2013-07-30 07:48:00,53.3,51.3,30.25,SW,221,0.0,2.0,93,0.00,BKN,BKN,0.00,WeatherDisplay:10.37,2013-07-30 14:48:00,
2013-07-30 07:53:00,53.4,51.1,30.25,SSE,167,0.0,2.0,92,0.00,BKN,BKN,0.00,WeatherDisplay:10.37,2013-07-30 14:53:00,
2013-07-30 07:58:00,53.5,51.3,30.25,SSE,160,0.0,0.0,92,0.00,BKN,BKN,0.00,WeatherDisplay:10.37,2013-07-30 14:58:00,
2013-07-30 08:03:00,53.7,51.4,30.25,SSE,160,0.0,1.0,92,0.00,BKN,BKN,0.00,WeatherDisplay:10.37,2013-07-30 15:03:00,
2013-07-30 08:08:00,53.8,51.5,30.25,SSE,160,0.0,1.0,92,0.00,BKN,BKN,0.00,WeatherDisplay:10.37,2013-07-30 15:08:00,
2013-07-30 08:13:00,53.9,51.6,30.25,SSE,161,0.0,2.0,92,0.00,BKN,BKN,0.00,WeatherDisplay:10.37,2013-07-30 15:13:00,
2013-07-30 08:18:00,54.0,51.7,30.25,South,186,0.0,3.0,92,0.00,BKN,BKN,0.00,WeatherDisplay:10.37,2013-07-30 15:18:00,
2013-07-30 08:23:00,54.1,51.5,30.26,WSW,245,0.0,1.0,91,0.00,BKN,BKN,0.00,WeatherDisplay:10.37,2013-07-30 15:23:00,
2013-07-30 08:28:00,54.2,51.6,30.26,West,261,0.0,1.0,91,0.00,BKN,BKN,0.00,WeatherDisplay:10.37,2013-07-30 15:28:00,
2013-07-30 08:33:00,54.3,51.7,30.26,West,261,0.0,1.0,91,0.00,BKN,BKN,0.00,WeatherDisplay:10.37,2013-07-30 15:33:00,
2013-07-30 08:38:00,54.4,51.5,30.26,West,273,1.0,3.0,90,0.00,BKN,BKN,0.00,WeatherDisplay:10.37,2013-07-30 15:38:00,
2013-07-30 08:43:00,54.4,51.8,30.26,WNW,283,1.0,4.0,91,0.00,BKN,BKN,0.00,WeatherDisplay:10.37,2013-07-30 15:43:00,
2013-07-30 08:48:00,54.5,51.7,30.26,West,280,0.0,3.0,90,0.00,BKN,BKN,0.00,WeatherDisplay:10.37,2013-07-30 15:48:00,
2013-07-30 08:53:00,54.8,51.9,30.26,West,278,0.0,1.0,90,0.00,BKN,BKN,0.00,WeatherDisplay:10.37,2013-07-30 15:53:00,
2013-07-30 08:58:00,55.0,52.1,30.26,West,278,0.0,1.0,90,0.00,BKN,BKN,0.00,WeatherDisplay:10.37,2013-07-30 15:58:00,
2013-07-30 09:03:00,55.1,51.9,30.26,WSW,256,1.0,2.0,89,0.00,BKN,BKN,0.00,WeatherDisplay:10.37,2013-07-30 16:03:00,
2013-07-30 09:08:00,55.3,52.1,30.26,SSW,207,0.0,2.0,89,0.00,BKN,BKN,0.00,WeatherDisplay:10.37,2013-07-30 16:08:00,
2013-07-30 09:13:00,55.5,52.3,30.26,South,186,1.0,3.0,89,0.00,BKN,BKN,0.00,WeatherDisplay:10.37,2013-07-30 16:13:00,
2013-07-30 09:19:00,55.7,52.2,30.26,South,169,0.0,2.0,88,0.00,BKN,BKN,0.00,WeatherDisplay:10.37,2013-07-30 16:19:00,
2013-07-30 09:28:00,56.2,52.3,30.26,SSW,213,0.0,3.0,87,0.00,BKN,BKN,0.00,WeatherDisplay:10.37,2013-07-30 16:28:00,
2013-07-30 09:33:00,56.3,52.5,30.26,West,262,0.0,1.0,87,0.00,BKN,BKN,0.00,WeatherDisplay:10.37,2013-07-30 16:33:00,
2013-07-30 09:38:00,56.2,52.4,30.26,WSW,242,0.0,2.0,87,0.00,BKN,BKN,0.00,WeatherDisplay:10.37,2013-07-30 16:38:00,
2013-07-30 09:43:00,56.3,52.5,30.26,SW,224,0.0,1.0,87,0.00,BKN,BKN,0.00,WeatherDisplay:10.37,2013-07-30 16:43:00,
2013-07-30 09:48:00,56.5,52.4,30.26,West,259,0.0,2.0,86,0.00,BKN,BKN,0.00,WeatherDisplay:10.37,2013-07-30 16:48:00,
2013-07-30 09:53:00,56.9,53.1,30.26,WSW,238,0.0,1.0,87,0.00,BKN,BKN,0.00,WeatherDisplay:10.37,2013-07-30 16:53:00,
2013-07-30 09:58:00,57.4,53.2,30.26,SSW,203,0.0,1.0,86,0.00,BKN,BKN,0.00,WeatherDisplay:10.37,2013-07-30 16:58:00,
2013-07-30 10:03:00,57.6,53.1,30.26,SW,225,0.0,3.0,85,0.00,BKN,BKN,0.00,WeatherDisplay:10.37,2013-07-30 17:03:00,
2013-07-30 10:08:00,57.7,53.2,30.26,West,272,2.0,4.0,85,0.00,BKN,BKN,0.00,WeatherDisplay:10.37,2013-07-30 17:08:00,
2013-07-30 10:13:00,58.0,53.2,30.26,WNW,291,0.0,2.0,84,0.00,BKN,BKN,0.00,WeatherDisplay:10.37,2013-07-30 17:13:00,
2013-07-30 10:18:00,58.1,53.3,30.26,WNW,293,0.0,1.0,84,0.00,BKN,BKN,0.00,WeatherDisplay:10.37,2013-07-30 17:18:00,
2013-07-30 10:23:00,58.3,53.5,30.26,WNW,293,0.0,1.0,84,0.00,BKN,BKN,0.00,WeatherDisplay:10.37,2013-07-30 17:23:00,
2013-07-30 10:28:00,58.6,53.8,30.26,WNW,293,0.0,1.0,84,0.00,BKN,BKN,0.00,WeatherDisplay:10.37,2013-07-30 17:28:00,
2013-07-30 10:33:00,58.8,53.6,30.26,WSW,248,0.0,1.0,83,0.00,BKN,BKN,0.00,WeatherDisplay:10.37,2013-07-30 17:33:00,
2013-07-30 10:43:00,59.0,53.5,30.26,South,184,1.0,3.0,82,0.00,BKN,BKN,0.00,WeatherDisplay:10.37,2013-07-30 17:43:00,
2013-07-30 10:48:00,59.5,54.0,30.26,SSE,160,2.0,4.0,82,0.00,BKN,BKN,0.00,WeatherDisplay:10.37,2013-07-30 17:48:00,
2013-07-30 10:53:00,59.6,53.7,30.26,SSW,210,0.0,3.0,81,0.00,BKN,BKN,0.00,WeatherDisplay:10.37,2013-07-30 17:53:00,
2013-07-30 10:58:00,59.9,54.0,30.26,West,262,1.0,4.0,81,0.00,BKN,BKN,0.00,WeatherDisplay:10.37,2013-07-30 17:58:00,
2013-07-30 11:03:00,60.4,54.6,30.26,SSW,212,0.0,2.0,81,0.00,BKN,BKN,0.00,WeatherDisplay:10.37,2013-07-30 18:03:00,
2013-07-30 11:13:00,61.4,54.8,30.26,South,181,0.0,2.0,79,0.00,BKN,BKN,0.00,WeatherDisplay:10.37,2013-07-30 18:13:00,
2013-07-30 11:18:00,61.8,54.9,30.26,South,181,0.0,1.0,78,0.00,BKN,BKN,0.00,WeatherDisplay:10.37,2013-07-30 18:18:00,
2013-07-30 11:23:00,62.1,54.8,30.26,SSW,206,1.0,3.0,77,0.00,BKN,BKN,0.00,WeatherDisplay:10.37,2013-07-30 18:23:00,
2013-07-30 11:28:00,62.5,55.6,30.25,SW,229,1.0,3.0,78,0.00,BKN,BKN,0.00,WeatherDisplay:10.37,2013-07-30 18:28:00,
2013-07-30 11:33:00,62.9,55.2,30.25,SW,228,1.0,2.0,76,0.00,BKN,BKN,0.00,WeatherDisplay:10.37,2013-07-30 18:33:00,
2013-07-30 11:38:00,63.2,55.1,30.25,WSW,237,1.0,4.0,75,0.00,BKN,BKN,0.00,WeatherDisplay:10.37,2013-07-30 18:38:00,
2013-07-30 11:43:00,63.6,55.5,30.25,WSW,245,2.0,5.0,75,0.00,BKN,BKN,0.00,WeatherDisplay:10.37,2013-07-30 18:43:00,
2013-07-30 11:48:00,64.2,55.7,30.25,WSW,258,0.0,3.0,74,0.00,BKN,BKN,0.00,WeatherDisplay:10.37,2013-07-30 18:48:00,
2013-07-30 11:53:00,64.8,56.3,30.25,SW,236,1.0,4.0,74,0.00,BKN,BKN,0.00,WeatherDisplay:10.37,2013-07-30 18:53:00,
2013-07-30 11:58:00,65.4,55.8,30.25,WSW,252,1.0,6.0,71,0.00,BKN,BKN,0.00,WeatherDisplay:10.37,2013-07-30 18:58:00,
2013-07-30 12:03:00,66.3,56.3,30.25,West,274,1.0,6.0,70,0.00,BKN,BKN,0.00,WeatherDisplay:10.37,2013-07-30 19:03:00,
2013-07-30 12:08:00,66.7,56.6,30.25,SSW,208,0.0,5.0,70,0.00,BKN,BKN,0.00,WeatherDisplay:10.37,2013-07-30 19:08:00,
2013-07-30 12:13:00,67.0,56.5,30.25,SSE,166,1.0,5.0,69,0.00,BKN,BKN,0.00,WeatherDisplay:10.37,2013-07-30 19:13:00,
2013-07-30 12:18:00,67.6,56.6,30.25,SSW,197,1.0,5.0,68,0.00,BKN,BKN,0.00,WeatherDisplay:10.37,2013-07-30 19:18:00,
2013-07-30 12:23:00,67.9,56.9,30.25,South,181,2.0,4.0,68,0.00,BKN,BKN,0.00,WeatherDisplay:10.37,2013-07-30 19:23:00,
2013-07-30 12:28:00,67.9,56.9,30.25,SSE,168,1.0,5.0,68,0.00,BKN,BKN,0.00,WeatherDisplay:10.37,2013-07-30 19:28:00,
2013-07-30 12:33:00,67.7,56.8,30.24,SSE,167,1.0,5.0,68,0.00,BKN,BKN,0.00,WeatherDisplay:10.37,2013-07-30 19:33:00,
2013-07-30 12:38:00,67.8,56.9,30.25,SSW,206,1.0,4.0,68,0.00,BKN,BKN,0.00,WeatherDisplay:10.37,2013-07-30 19:38:00,
2013-07-30 12:43:00,68.1,57.1,30.24,SW,214,1.0,4.0,68,0.00,BKN,BKN,0.00,WeatherDisplay:10.37,2013-07-30 19:43:00,
2013-07-30 12:48:00,68.4,57.0,30.24,SSW,195,1.0,3.0,67,0.00,BKN,BKN,0.00,WeatherDisplay:10.37,2013-07-30 19:48:00,
2013-07-30 12:53:00,68.5,57.5,30.24,South,176,0.0,3.0,68,0.00,BKN,BKN,0.00,WeatherDisplay:10.37,2013-07-30 19:53:00,
2013-07-30 12:58:00,68.7,56.9,30.24,SW,224,2.0,6.0,66,0.00,BKN,BKN,0.00,WeatherDisplay:10.37,2013-07-30 19:58:00,
2013-07-30 13:03:00,69.1,57.2,30.24,West,269,3.0,7.0,66,0.00,BKN,BKN,0.00,WeatherDisplay:10.37,2013-07-30 20:03:00,
2013-07-30 13:08:00,69.4,57.1,30.24,West,275,5.0,6.0,65,0.00,BKN,BKN,0.00,WeatherDisplay:10.37,2013-07-30 20:08:00,
2013-07-30 13:13:00,69.6,57.3,30.24,West,274,1.0,6.0,65,0.00,BKN,BKN,0.00,WeatherDisplay:10.37,2013-07-30 20:13:00,
2013-07-30 13:18:00,69.9,57.6,30.24,West,266,2.0,6.0,65,0.00,BKN,BKN,0.00,WeatherDisplay:10.37,2013-07-30 20:18:00,
2013-07-30 13:23:00,70.1,57.4,30.24,West,260,2.0,6.0,64,0.00,BKN,BKN,0.00,WeatherDisplay:10.37,2013-07-30 20:23:00,
2013-07-30 13:28:00,70.1,57.8,30.24,SW,231,1.0,6.0,65,0.00,BKN,BKN,0.00,WeatherDisplay:10.37,2013-07-30 20:28:00,
2013-07-30 13:33:00,70.2,57.4,30.24,WSW,247,3.0,8.0,64,0.00,BKN,BKN,0.00,WeatherDisplay:10.37,2013-07-30 20:33:00,
2013-07-30 13:38:00,70.2,57.4,30.23,West,267,3.0,6.0,64,0.00,BKN,BKN,0.00,WeatherDisplay:10.37,2013-07-30 20:38:00,
2013-07-30 13:43:00,70.1,57.4,30.23,West,264,1.0,7.0,64,0.00,BKN,BKN,0.00,WeatherDisplay:10.37,2013-07-30 20:43:00,
2013-07-30 13:48:00,70.3,57.5,30.23,West,279,6.0,10.0,64,0.00,BKN,BKN,0.00,WeatherDisplay:10.37,2013-07-30 20:48:00,
2013-07-30 13:53:00,70.3,57.5,30.23,West,266,1.0,6.0,64,0.00,BKN,BKN,0.00,WeatherDisplay:10.37,2013-07-30 20:53:00,
2013-07-30 13:58:00,70.3,57.5,30.23,West,264,2.0,5.0,64,0.00,BKN,BKN,0.00,WeatherDisplay:10.37,2013-07-30 20:58:00,
2013-07-30 14:03:00,70.4,57.7,30.23,West,277,5.0,9.0,64,0.00,BKN,BKN,0.00,WeatherDisplay:10.37,2013-07-30 21:03:00,
2013-07-30 14:08:00,70.6,57.9,30.23,West,270,1.0,6.0,64,0.00,BKN,BKN,0.00,WeatherDisplay:10.37,2013-07-30 21:08:00,
2013-07-30 14:13:00,70.8,58.0,30.23,WSW,258,0.0,8.0,64,0.00,BKN,BKN,0.00,WeatherDisplay:10.37,2013-07-30 21:13:00,
2013-07-30 14:18:00,70.8,58.0,30.23,West,269,5.0,8.0,64,0.00,BKN,BKN,0.00,WeatherDisplay:10.37,2013-07-30 21:18:00,
2013-07-30 14:23:00,70.9,58.1,30.23,WSW,248,1.0,5.0,64,0.00,BKN,BKN,0.00,WeatherDisplay:10.37,2013-07-30 21:23:00,
2013-07-30 14:28:00,71.2,58.0,30.23,SSW,200,1.0,8.0,63,0.00,BKN,BKN,0.00,WeatherDisplay:10.37,2013-07-30 21:28:00,
2013-07-30 14:33:00,71.3,57.6,30.22,WSW,249,3.0,8.0,62,0.00,BKN,BKN,0.00,WeatherDisplay:10.37,2013-07-30 21:33:00,
2013-07-30 14:38:00,71.3,57.6,30.22,West,267,1.0,5.0,62,0.00,BKN,BKN,0.00,WeatherDisplay:10.37,2013-07-30 21:38:00,
2013-07-30 14:43:00,71.5,58.2,30.22,West,265,0.0,2.0,63,0.00,BKN,BKN,0.00,WeatherDisplay:10.37,2013-07-30 21:43:00,
2013-07-30 14:48:00,71.8,58.1,30.22,WSW,258,3.0,6.0,62,0.00,BKN,BKN,0.00,WeatherDisplay:10.37,2013-07-30 21:48:00,
2013-07-30 14:53:00,72.3,57.6,30.22,West,269,2.0,5.0,60,0.00,BKN,BKN,0.00,WeatherDisplay:10.37,2013-07-30 21:53:00,
2013-07-30 14:58:00,72.5,58.3,30.22,West,278,1.0,2.0,61,0.00,BKN,BKN,0.00,WeatherDisplay:10.37,2013-07-30 21:58:00,
2013-07-30 15:03:00,72.7,58.0,30.22,WSW,258,1.0,6.0,60,0.00,BKN,BKN,0.00,WeatherDisplay:10.37,2013-07-30 22:03:00,
2013-07-30 15:08:00,72.8,58.1,30.22,WSW,257,1.0,6.0,60,0.00,BKN,BKN,0.00,WeatherDisplay:10.37,2013-07-30 22:08:00,
2013-07-30 15:13:00,72.9,58.2,30.22,WSW,250,0.0,6.0,60,0.00,BKN,BKN,0.00,WeatherDisplay:10.37,2013-07-30 22:13:00,
2013-07-30 15:18:00,73.4,58.7,30.21,West,264,1.0,3.0,60,0.00,BKN,BKN,0.00,WeatherDisplay:10.37,2013-07-30 22:18:00,
2013-07-30 15:23:00,73.7,58.5,30.21,West,265,1.0,3.0,59,0.00,BKN,BKN,0.00,WeatherDisplay:10.37,2013-07-30 22:23:00,
2013-07-30 15:28:00,73.9,58.2,30.21,WSW,256,2.0,5.0,58,0.00,BKN,BKN,0.00,WeatherDisplay:10.37,2013-07-30 22:28:00,
2013-07-30 15:33:00,74.1,58.4,30.21,WSW,258,1.0,4.0,58,0.00,BKN,BKN,0.00,WeatherDisplay:10.37,2013-07-30 22:33:00,
2013-07-30 15:38:00,74.3,58.6,30.21,WSW,253,1.0,4.0,58,0.00,BKN,BKN,0.00,WeatherDisplay:10.37,2013-07-30 22:38:00,
2013-07-30 15:43:00,74.8,58.6,30.21,West,261,2.0,5.0,57,0.00,BKN,BKN,0.00,WeatherDisplay:10.37,2013-07-30 22:43:00,
2013-07-30 15:48:00,75.5,58.2,30.21,West,278,0.0,5.0,55,0.00,BKN,BKN,0.00,WeatherDisplay:10.37,2013-07-30 22:48:00,
2013-07-30 15:53:00,75.7,58.9,30.21,West,269,1.0,5.0,56,0.00,BKN,BKN,0.00,WeatherDisplay:10.37,2013-07-30 22:53:00,
2013-07-30 15:58:00,76.0,58.7,30.20,WSW,257,1.0,4.0,55,0.00,BKN,BKN,0.00,WeatherDisplay:10.37,2013-07-30 22:58:00,
2013-07-30 16:03:00,76.7,58.3,30.20,West,281,2.0,6.0,53,0.00,BKN,BKN,0.00,WeatherDisplay:10.37,2013-07-30 23:03:00,
2013-07-30 16:08:00,76.6,58.7,30.20,West,263,1.0,5.0,54,0.00,BKN,BKN,0.00,WeatherDisplay:10.37,2013-07-30 23:08:00,
2013-07-30 16:13:00,76.5,58.6,30.20,SW,233,1.0,5.0,54,0.00,BKN,BKN,0.00,WeatherDisplay:10.37,2013-07-30 23:13:00,
2013-07-30 16:18:00,76.2,58.8,30.20,SW,236,2.0,4.0,55,0.00,BKN,BKN,0.00,WeatherDisplay:10.37,2013-07-30 23:18:00,
2013-07-30 16:23:00,76.2,58.3,30.20,West,265,2.0,5.0,54,0.00,BKN,BKN,0.00,WeatherDisplay:10.37,2013-07-30 23:23:00,
2013-07-30 16:28:00,76.4,58.0,30.20,West,275,0.0,5.0,53,0.00,BKN,BKN,0.00,WeatherDisplay:10.37,2013-07-30 23:28:00,
2013-07-30 16:33:00,76.6,58.7,30.20,West,280,5.0,8.0,54,0.00,BKN,BKN,0.00,WeatherDisplay:10.37,2013-07-30 23:33:00,
2013-07-30 16:38:00,76.9,58.5,30.20,West,276,2.0,7.0,53,0.00,BKN,BKN,0.00,WeatherDisplay:10.37,2013-07-30 23:38:00,
2013-07-30 16:43:00,77.0,58.0,30.20,West,267,0.0,6.0,52,0.00,BKN,BKN,0.00,WeatherDisplay:10.37,2013-07-30 23:43:00,
2013-07-30 16:48:00,76.9,57.9,30.20,WSW,258,0.0,6.0,52,0.00,BKN,BKN,0.00,WeatherDisplay:10.37,2013-07-30 23:48:00,
2013-07-30 16:53:00,76.7,58.3,30.20,WSW,238,0.0,2.0,53,0.00,BKN,BKN,0.00,WeatherDisplay:10.37,2013-07-30 23:53:00,
2013-07-30 17:03:00,76.8,57.8,30.20,WSW,245,1.0,4.0,52,0.00,BKN,BKN,0.00,WeatherDisplay:10.37,2013-07-31 00:03:00,
2013-07-30 17:08:00,77.0,58.1,30.20,WSW,256,2.0,4.0,52,0.00,BKN,BKN,0.00,WeatherDisplay:10.37,2013-07-31 00:08:00,
2013-07-30 17:13:00,77.1,57.6,30.20,WSW,257,1.0,3.0,51,0.00,BKN,BKN,0.00,WeatherDisplay:10.37,2013-07-31 00:13:00,
2013-07-30 17:18:00,77.1,57.6,30.20,West,276,1.0,7.0,51,0.00,BKN,BKN,0.00,WeatherDisplay:10.37,2013-07-31 00:18:00,
2013-07-30 17:23:00,77.3,58.8,30.20,West,270,0.0,2.0,53,0.00,BKN,BKN,0.00,WeatherDisplay:10.37,2013-07-31 00:23:00,
2013-07-30 17:28:00,77.4,57.9,30.19,West,259,3.0,5.0,51,0.00,BKN,BKN,0.00,WeatherDisplay:10.37,2013-07-31 00:28:00,
2013-07-30 17:33:00,77.3,57.2,30.20,West,272,1.0,6.0,50,0.00,BKN,BKN,0.00,WeatherDisplay:10.37,2013-07-31 00:33:00,
2013-07-30 17:38:00,77.2,57.1,30.19,West,275,5.0,7.0,50,0.00,BKN,BKN,0.00,WeatherDisplay:10.37,2013-07-31 00:38:00,
2013-07-30 17:43:00,77.0,56.9,30.19,West,260,1.0,4.0,50,0.00,BKN,BKN,0.00,WeatherDisplay:10.37,2013-07-31 00:43:00,
2013-07-30 17:48:00,76.7,57.2,30.19,WSW,237,1.0,3.0,51,0.00,BKN,BKN,0.00,WeatherDisplay:10.37,2013-07-31 00:48:00,
2013-07-30 17:53:00,76.4,56.9,30.19,West,259,1.0,4.0,51,0.00,BKN,BKN,0.00,WeatherDisplay:10.37,2013-07-31 00:53:00,
2013-07-30 17:58:00,76.1,57.2,30.19,West,264,2.0,6.0,52,0.00,BKN,BKN,0.00,WeatherDisplay:10.37,2013-07-31 00:58:00,
2013-07-30 18:03:00,76.0,57.6,30.19,West,266,1.0,4.0,53,0.00,BKN,BKN,0.00,WeatherDisplay:10.37,2013-07-31 01:03:00,
2013-07-30 18:08:00,75.8,56.9,30.19,West,277,3.0,5.0,52,0.00,BKN,BKN,0.00,WeatherDisplay:10.37,2013-07-31 01:08:00,
2013-07-30 18:13:00,75.6,57.3,30.19,WSW,257,1.0,3.0,53,0.00,BKN,BKN,0.00,WeatherDisplay:10.37,2013-07-31 01:13:00,
2013-07-30 18:18:00,75.5,57.2,30.19,WSW,242,1.0,5.0,53,0.00,BKN,BKN,0.00,WeatherDisplay:10.37,2013-07-31 01:18:00,
2013-07-30 18:23:00,75.4,57.1,30.19,WSW,250,0.0,5.0,53,0.00,BKN,BKN,0.00,WeatherDisplay:10.37,2013-07-31 01:23:00,
2013-07-30 18:28:00,75.4,57.1,30.19,West,261,2.0,4.0,53,0.00,BKN,BKN,0.00,WeatherDisplay:10.37,2013-07-31 01:28:00,
2013-07-30 18:33:00,75.3,57.0,30.19,West,279,2.0,6.0,53,0.00,BKN,BKN,0.00,WeatherDisplay:10.37,2013-07-31 01:33:00,
2013-07-30 18:38:00,75.1,56.3,30.19,West,264,1.0,5.0,52,0.00,BKN,BKN,0.00,WeatherDisplay:10.37,2013-07-31 01:38:00,
2013-07-30 18:43:00,74.9,56.6,30.19,WSW,256,2.0,5.0,53,0.00,BKN,BKN,0.00,WeatherDisplay:10.37,2013-07-31 01:43:00,
2013-07-30 18:48:00,74.7,56.9,30.19,West,269,2.0,4.0,54,0.00,BKN,BKN,0.00,WeatherDisplay:10.37,2013-07-31 01:48:00,
2013-07-30 18:53:00,74.5,57.3,30.19,West,262,2.0,4.0,55,0.00,BKN,BKN,0.00,WeatherDisplay:10.37,2013-07-31 01:53:00,
2013-07-30 18:58:00,74.4,57.2,30.19,WSW,253,0.0,3.0,55,0.00,BKN,BKN,0.00,WeatherDisplay:10.37,2013-07-31 01:58:00,
2013-07-30 19:03:00,74.2,57.5,30.19,West,270,2.0,5.0,56,0.00,BKN,BKN,0.00,WeatherDisplay:10.37,2013-07-31 02:03:00,
2013-07-30 19:08:00,74.1,56.9,30.19,West,281,0.0,4.0,55,0.00,BKN,BKN,0.00,WeatherDisplay:10.37,2013-07-31 02:08:00,
2013-07-30 19:13:00,74.0,56.8,30.19,West,278,1.0,5.0,55,0.00,BKN,BKN,0.00,WeatherDisplay:10.37,2013-07-31 02:13:00,
2013-07-30 19:18:00,73.8,56.6,30.19,West,270,1.0,3.0,55,0.00,BKN,BKN,0.00,WeatherDisplay:10.37,2013-07-31 02:18:00,
2013-07-30 19:23:00,73.7,56.5,30.19,West,261,1.0,3.0,55,0.00,BKN,BKN,0.00,WeatherDisplay:10.37,2013-07-31 02:23:00,
2013-07-30 19:28:00,73.5,56.3,30.19,West,265,0.0,3.0,55,0.00,BKN,BKN,0.00,WeatherDisplay:10.37,2013-07-31 02:28:00,
2013-07-30 19:33:00,73.4,56.7,30.19,West,268,0.0,1.0,56,0.00,BKN,BKN,0.00,WeatherDisplay:10.37,2013-07-31 02:33:00,
2013-07-30 19:38:00,73.2,56.1,30.19,West,269,0.0,4.0,55,0.00,BKN,BKN,0.00,WeatherDisplay:10.37,2013-07-31 02:38:00,
2013-07-30 19:43:00,73.0,58.3,30.19,West,270,0.0,1.0,60,0.00,BKN,BKN,0.00,WeatherDisplay:10.37,2013-07-31 02:43:00,
2013-07-30 19:48:00,72.7,58.0,30.19,West,270,0.0,0.0,60,0.00,BKN,BKN,0.00,WeatherDisplay:10.37,2013-07-31 02:48:00,
2013-07-30 19:53:00,72.4,58.2,30.19,West,270,0.0,0.0,61,0.00,BKN,BKN,0.00,WeatherDisplay:10.37,2013-07-31 02:53:00,
2013-07-30 19:58:00,72.0,58.2,30.19,West,270,0.0,0.0,62,0.00,BKN,BKN,0.00,WeatherDisplay:10.37,2013-07-31 02:58:00,
2013-07-30 20:03:00,71.6,58.3,30.19,West,270,0.0,0.0,63,0.00,BKN,BKN,0.00,WeatherDisplay:10.37,2013-07-31 03:03:00,
2013-07-30 20:08:00,71.3,58.0,30.19,West,270,0.0,0.0,63,0.00,BKN,BKN,0.00,WeatherDisplay:10.37,2013-07-31 03:08:00,
2013-07-30 20:13:00,70.8,58.0,30.20,West,270,0.0,0.0,64,0.00,BKN,BKN,0.00,WeatherDisplay:10.37,2013-07-31 03:13:00,
2013-07-30 20:18:00,70.5,57.7,30.20,West,270,0.0,0.0,64,0.00,BKN,BKN,0.00,WeatherDisplay:10.37,2013-07-31 03:18:00,
2013-07-30 20:23:00,70.1,57.8,30.20,West,270,0.0,0.0,65,0.00,BKN,BKN,0.00,WeatherDisplay:10.37,2013-07-31 03:23:00,
2013-07-30 20:28:00,69.7,57.8,30.20,West,270,0.0,0.0,66,0.00,BKN,BKN,0.00,WeatherDisplay:10.37,2013-07-31 03:28:00,
2013-07-30 20:33:00,69.3,57.4,30.20,West,270,0.0,0.0,66,0.00,BKN,BKN,0.00,WeatherDisplay:10.37,2013-07-31 03:33:00,
2013-07-30 20:38:00,68.8,57.4,30.20,West,270,0.0,0.0,67,0.00,BKN,BKN,0.00,WeatherDisplay:10.37,2013-07-31 03:38:00,
2013-07-30 20:43:00,68.4,57.4,30.20,West,270,0.0,0.0,68,0.00,BKN,BKN,0.00,WeatherDisplay:10.37,2013-07-31 03:43:00,
2013-07-30 20:48:00,68.0,57.1,30.20,West,270,0.0,0.0,68,0.00,BKN,BKN,0.00,WeatherDisplay:10.37,2013-07-31 03:48:00,
2013-07-30 20:53:00,67.7,57.1,30.20,West,270,0.0,0.0,69,0.00,BKN,BKN,0.00,WeatherDisplay:10.37,2013-07-31 03:53:00,
2013-07-30 20:58:00,67.3,56.8,30.20,West,270,0.0,0.0,69,0.00,BKN,BKN,0.00,WeatherDisplay:10.37,2013-07-31 03:58:00,
2013-07-30 21:03:00,66.9,56.8,30.20,West,270,0.0,0.0,70,0.00,BKN,BKN,0.00,WeatherDisplay:10.37,2013-07-31 04:03:00,
2013-07-30 21:08:00,66.6,56.9,30.20,West,270,0.0,0.0,71,0.00,BKN,BKN,0.00,WeatherDisplay:10.37,2013-07-31 04:08:00,
2013-07-30 21:13:00,66.3,56.6,30.20,West,270,0.0,0.0,71,0.00,BKN,BKN,0.00,WeatherDisplay:10.37,2013-07-31 04:13:00,
2013-07-30 21:18:00,65.9,56.6,30.20,West,270,0.0,0.0,72,0.00,BKN,BKN,0.00,WeatherDisplay:10.37,2013-07-31 04:18:00,
2013-07-30 21:23:00,65.6,56.3,30.20,West,270,0.0,0.0,72,0.00,BKN,BKN,0.00,WeatherDisplay:10.37,2013-07-31 04:23:00,
2013-07-30 21:28:00,65.3,56.4,30.21,West,270,0.0,0.0,73,0.00,BKN,BKN,0.00,WeatherDisplay:10.37,2013-07-31 04:28:00,
2013-07-30 21:33:00,65.0,56.5,30.21,West,270,0.0,0.0,74,0.00,BKN,BKN,0.00,WeatherDisplay:10.37,2013-07-31 04:33:00,
2013-07-30 21:38:00,64.7,56.6,30.21,West,270,0.0,0.0,75,0.00,BKN,BKN,0.00,WeatherDisplay:10.37,2013-07-31 04:38:00,
2013-07-30 21:43:00,64.3,56.6,30.21,West,270,0.0,0.0,76,0.00,BKN,BKN,0.00,WeatherDisplay:10.37,2013-07-31 04:43:00,
2013-07-30 21:48:00,64.0,56.3,30.21,West,270,0.0,0.0,76,0.00,BKN,BKN,0.00,WeatherDisplay:10.37,2013-07-31 04:48:00,
2013-07-30 21:53:00,63.8,56.1,30.21,West,270,0.0,0.0,76,0.00,BKN,BKN,0.00,WeatherDisplay:10.37,2013-07-31 04:53:00,
2013-07-30 21:58:00,63.5,56.2,30.21,West,270,0.0,0.0,77,0.00,BKN,BKN,0.00,WeatherDisplay:10.37,2013-07-31 04:58:00,
2013-07-30 22:03:00,63.2,56.3,30.21,West,270,0.0,0.0,78,0.00,BKN,BKN,0.00,WeatherDisplay:10.37,2013-07-31 05:03:00,
2013-07-30 22:08:00,63.0,56.3,30.22,West,270,0.0,0.0,79,0.00,BKN,BKN,0.00,WeatherDisplay:10.37,2013-07-31 05:08:00,
2013-07-30 22:13:00,62.6,56.0,30.22,West,270,0.0,0.0,79,0.00,BKN,BKN,0.00,WeatherDisplay:10.37,2013-07-31 05:13:00,
2013-07-30 22:18:00,62.3,56.0,30.22,West,270,0.0,0.0,80,0.00,BKN,BKN,0.00,WeatherDisplay:10.37,2013-07-31 05:18:00,
2013-07-30 22:23:00,62.1,55.8,30.22,West,270,0.0,0.0,80,0.00,BKN,BKN,0.00,WeatherDisplay:10.37,2013-07-31 05:23:00,
2013-07-30 22:28:00,61.9,56.0,30.22,West,270,0.0,0.0,81,0.00,BKN,BKN,0.00,WeatherDisplay:10.37,2013-07-31 05:28:00,
2013-07-30 22:33:00,61.7,56.1,30.22,West,270,0.0,0.0,82,0.00,BKN,BKN,0.00,WeatherDisplay:10.37,2013-07-31 05:33:00,
2013-07-30 22:38:00,61.5,56.0,30.22,West,270,0.0,0.0,82,0.00,BKN,BKN,0.00,WeatherDisplay:10.37,2013-07-31 05:38:00,
2013-07-30 22:43:00,61.3,56.1,30.22,West,270,0.0,0.0,83,0.00,BKN,BKN,0.00,WeatherDisplay:10.37,2013-07-31 05:43:00,
2013-07-30 22:48:00,61.1,55.9,30.22,West,270,0.0,0.0,83,0.00,BKN,BKN,0.00,WeatherDisplay:10.37,2013-07-31 05:48:00,
2013-07-30 22:53:00,60.9,55.7,30.22,West,270,0.0,0.0,83,0.00,BKN,BKN,0.00,WeatherDisplay:10.37,2013-07-31 05:53:00,
2013-07-30 22:58:00,60.8,55.6,30.22,West,270,0.0,0.0,83,0.00,BKN,BKN,0.00,WeatherDisplay:10.37,2013-07-31 05:58:00,
2013-07-30 23:03:00,60.7,55.8,30.22,West,271,0.0,0.0,84,0.00,BKN,BKN,0.00,WeatherDisplay:10.37,2013-07-31 06:03:00,
2013-07-30 23:08:00,60.5,55.6,30.22,West,271,0.0,0.0,84,0.00,BKN,BKN,0.00,WeatherDisplay:10.37,2013-07-31 06:08:00,
2013-07-30 23:13:00,60.4,55.5,30.22,West,271,0.0,0.0,84,0.00,BKN,BKN,0.00,WeatherDisplay:10.37,2013-07-31 06:13:00,
2013-07-30 23:18:00,60.2,55.3,30.22,West,271,0.0,0.0,84,0.00,BKN,BKN,0.00,WeatherDisplay:10.37,2013-07-31 06:18:00,
2013-07-30 23:23:00,60.1,55.6,30.22,West,271,0.0,0.0,85,0.00,BKN,BKN,0.00,WeatherDisplay:10.37,2013-07-31 06:23:00,
2013-07-30 23:28:00,59.9,55.4,30.22,West,271,0.0,0.0,85,0.00,BKN,BKN,0.00,WeatherDisplay:10.37,2013-07-31 06:28:00,
2013-07-30 23:33:00,59.8,55.3,30.22,West,271,0.0,0.0,85,0.00,BKN,BKN,0.00,WeatherDisplay:10.37,2013-07-31 06:33:00,
2013-07-30 23:38:00,59.6,55.4,30.22,West,271,0.0,0.0,86,0.00,BKN,BKN,0.00,WeatherDisplay:10.37,2013-07-31 06:38:00,
2013-07-30 23:43:00,59.5,55.3,30.22,West,271,0.0,0.0,86,0.00,BKN,BKN,0.00,WeatherDisplay:10.37,2013-07-31 06:43:00,
2013-07-30 23:48:00,59.4,55.2,30.22,West,271,0.0,0.0,86,0.00,BKN,BKN,0.00,WeatherDisplay:10.37,2013-07-31 06:48:00,
2013-07-30 23:53:00,59.1,54.9,30.22,West,271,0.0,0.0,86,0.00,BKN,BKN,0.00,WeatherDisplay:10.37,2013-07-31 06:53:00,
2013-07-30 23:58:00,59.0,54.8,30.22,West,271,0.0,0.0,86,0.00,BKN,BKN,0.00,WeatherDisplay:10.37,2013-07-31 06:58:00,